Odessa, TX

11:44 AM CST on February 08, 2016 (GMT -0600)
Odessa-Schlemeyer

Weather History for KODO - December, 2012

Change the Weather History Date:

Monday, December 10, 2012

  Actual Average (KMAF) Record (KMAF)
Temperature  
Mean Temperature 32 °F 45 °F  
Max Temperature 42 °F 59 °F 82 °F (1933)
Min Temperature 23 °F 31 °F 15 °F (1978)
Degree Days  
Heating Degree Days 32 20  
Month to date heating degree days 191  
Since 1 July heating degree days 670  
Moisture  
Dew Point 12 °F    
Average Humidity 46    
Maximum Humidity 74    
Minimum Humidity 23    
Precipitation  
Precipitation 0.00 in 0.02 in 0.45 in (1986)
Month to date precipitation 0.20  
Year to date precipitation 14.20  
Snow  
Snow 0.00 in - - ()
Month to date snowfall  
Since 1 July snowfall  
Snow Depth -    
Sea Level Pressure  
Sea Level Pressure 30.13 in    
Wind  
Wind Speed 13 mph (NW)    
Max Wind Speed 28 mph    
Max Gust Speed 32 mph    
Visibility 10 miles    
Events      
T = Trace of Precipitation, MM = Missing Value Source: NWS Daily Summary

Daily Weather History Graph

Daily Weather History Graph

Search for Another Location

Airport or City:

Trip Planner

Search our weather history database for the weather conditions in past years. The results will help you decide how hot, cold, wet, or windy it might be!

Date:

Astronomy

Dec. 10, 2012 Rise Set
Actual Time 7:39 AM CST 5:45 PM CST
Civil Twilight 7:12 AM CST 6:12 PM CST
Nautical Twilight 6:42 AM CST 6:43 PM CST
Astronomical Twilight 6:12 AM CST 7:12 PM CST
Moon 4:31 AM CST (12/10) 3:31 PM CST (12/10)
Length of Visible Light 11h 00m
Length of Day
10h 06m
Waning Crescent, 10% of the Moon is Illuminated
Dec 10
Waning Crescent
Dec 13
New
Dec 19
First Quarter
Dec 28
Full
Jan 4
Last Quarter

Hourly Weather History & Observations

Time (CST) Temp. Windchill Dew Point Humidity Pressure Visibility Wind Dir Wind Speed Gust Speed Precip Events Conditions
12:53 AM 32.0 °F 18.1 °F 10.9 °F 42% 30.19 in 9.0 mi North 27.6 mph 32.2 mph N/A   Overcast
2:53 AM 30.9 °F 18.7 °F 17.1 °F 57% 30.18 in 10.0 mi North 19.6 mph - N/A   Overcast
3:29 AM 28.4 °F 15.8 °F 21.2 °F 74% 30.21 in 10.0 mi North 18.4 mph - N/A   Overcast
3:44 AM 28.4 °F 17.5 °F 21.2 °F 74% 30.21 in 10.0 mi North 13.8 mph - N/A   Overcast
3:53 AM 28.0 °F 16.1 °F 19.9 °F 72% 30.19 in 10.0 mi North 16.1 mph - N/A   Overcast
4:53 AM 26.1 °F 19.4 °F 18.0 °F 71% 30.19 in 10.0 mi North 5.8 mph - N/A   Partly Cloudy
5:53 AM 25.0 °F 19.3 °F 17.1 °F 72% 30.19 in 10.0 mi NNW 4.6 mph - N/A   Clear
7:53 AM 23.0 °F 15.8 °F 16.0 °F 74% 30.21 in 10.0 mi WNW 5.8 mph - N/A   Clear
8:53 AM 26.1 °F 15.6 °F 16.0 °F 66% 30.22 in 10.0 mi NW 11.5 mph - N/A   Clear
9:53 AM 30.0 °F 20.5 °F 12.0 °F 47% 30.21 in 10.0 mi North 11.5 mph - N/A   Clear
10:53 AM 32.0 °F 26.4 °F 8.1 °F 37% 30.22 in 10.0 mi North 5.8 mph - N/A   Clear
11:53 AM 34.0 °F 28.8 °F 8.1 °F 34% 30.19 in 10.0 mi NNW 5.8 mph - N/A   Clear
12:53 PM 37.9 °F 32.1 °F 9.0 °F 30% 30.15 in 10.0 mi North 8.1 mph - N/A   Clear
1:53 PM 37.9 °F - 8.1 °F 29% 30.09 in 10.0 mi Calm Calm - N/A   Clear
2:53 PM 41.0 °F 36.4 °F 6.1 °F 24% 30.04 in 10.0 mi West 6.9 mph 25.3 mph N/A   Clear
3:53 PM 42.1 °F 36.1 °F 6.1 °F 23% 30.04 in 10.0 mi West 10.4 mph - N/A   Clear
4:53 PM 42.1 °F 38.4 °F 6.1 °F 23% 30.03 in 10.0 mi West 5.8 mph - N/A   Clear
5:53 PM 39.0 °F 36.8 °F 8.1 °F 28% 30.03 in 10.0 mi SW 3.5 mph - N/A   Clear
6:53 PM 37.0 °F 34.5 °F 12.0 °F 36% 30.04 in 10.0 mi SSW 3.5 mph - N/A   Clear
7:53 PM 36.0 °F 32.1 °F 12.0 °F 37% 30.06 in 10.0 mi South 4.6 mph - N/A   Clear
8:53 PM 33.1 °F - 10.9 °F 40% 30.06 in 10.0 mi Calm Calm - N/A   Clear
9:53 PM 33.1 °F 28.7 °F 10.9 °F 40% 30.05 in 10.0 mi South 4.6 mph - N/A   Clear
10:53 PM 32.0 °F 26.4 °F 9.0 °F 38% 30.05 in 10.0 mi South 5.8 mph - N/A   Clear
11:53 PM 30.0 °F 25.2 °F 9.0 °F 41% 30.05 in 10.0 mi SSW 4.6 mph - N/A   Clear